Location: Croydon
(51.3762°N, 0.0982°W)
Time: 02:10:47
(UTC+00:00)

Altair - Pass Details

Date: 15 November 2019
Orbit: 1502 x 1682 km, 47.2° (Epoch: 14 December)

Event Time Altitude Azimuth Distance (km) Brightness Sun altitude
Rises 03:36:40 0° 214° (SSW) 4,631 - -34.1°
Reaches altitude 10° 03:39:58 10° 206° (SSW) 3,647 - -33.6°
Exits shadow 03:44:21 27° 184° (S) 2,572 8.5 -32.9°
Maximum altitude 03:48:00 36° 144° (SE) 2,207 8.4 -32.4°
Drops below altitude 10° 03:56:09 10° 82° (E) 3,695 10.4 -31.1°
Sets 03:59:30 0° 74° (ENE) 4,700 11.2 -30.6°
